Location: München
(48.1351°N, 11.5820°E)
Time: 05:55:02
(UTC+02:00)

ISS - Pass Details

Date: 27 May 2021
Orbit: 417 x 422 km, 51.6° (Epoch: 13 June)

Event Time Altitude Azimuth Distance (km) Brightness Sun altitude
Rises 22:13:46 0° 292° (WNW) 2,366 1.3 -9.9°
Reaches altitude 10° 22:15:52 10° 292° (WNW) 1,501 0.2 -10.2°
Maximum altitude 22:19:15 90° 171° (S) 424 -3.8 -10.5°
Enters shadow 22:22:01 15° 114° (ESE) 1,254 -1.9 -10.8°
